| time (UTC) | temp F | wind direction | speed knots | gust knots | rain 1hr in | rain 24hr in | rain mn in | humidity % | barometer mb |
| 20260505013013 | 62 | 296 | 0.9 | 7.8 | 0.00 | 0.00 | 0.00 | 46 | 1010.0 |
| 20260505011613 | 62 | 292 | 1.7 | 7.8 | 0.00 | 0.00 | 0.00 | 45 | 1009.8 |
| 20260505010112 | 63 | 326 | 1.7 | 4.3 | 0.00 | 0.00 | 0.00 | 45 | 1009.4 |
| 20260505004521 | 63 | 49 | 0.9 | 5.2 | 0.00 | 0.00 | 0.00 | 44 | 1009.2 |
| 20260505003010 | 64 | 335 | 0.9 | 5.2 | 0.00 | 0.00 | 0.00 | 43 | 1008.9 |
| 20260505001510 | 64 | 233 | 1.7 | 6.1 | 0.00 | 0.00 | 0.00 | 39 | 1008.3 |
| 20260505000112 | 65 | 145 | 0.0 | 1.7 | 0.00 | 0.00 | 0.00 | 40 | 1008.1 |
| 20260504234511 | 66 | 48 | 0.9 | 3.5 | 0.00 | 0.00 | 0.00 | 37 | 1007.8 |
| 20260504233010 | 67 | 346 | 0.0 | 2.6 | 0.00 | 0.00 | 0.00 | 39 | 1007.6 |
| 20260504231509 | 68 | 343 | 0.0 | 4.3 | 0.00 | 0.00 | 0.00 | 35 | 1007.4 |
| 20260504224510 | 69 | 315 | 1.7 | 4.3 | 0.00 | 0.00 | 0.00 | 33 | 1007.0 |
| 20260504223007 | 70 | 299 | 0.9 | 2.6 | 0.00 | 0.00 | 0.00 | 32 | 1006.9 |
| 20260504221508 | 70 | 317 | 0.9 | 4.3 | 0.00 | 0.00 | 0.00 | 32 | 1006.8 |
| 20260504214508 | 70 | 321 | 1.7 | 6.1 | 0.00 | 0.00 | 0.00 | 30 | 1006.9 |
| 20260504213007 | 71 | 336 | 2.6 | 7.0 | 0.00 | 0.00 | 0.00 | 30 | 1006.9 |
| 20260504211507 | 71 | 313 | 2.6 | 5.2 | 0.00 | 0.00 | 0.00 | 30 | 1006.9 |
| 20260504204511 | 71 | 330 | 1.7 | 7.0 | 0.00 | 0.00 | 0.00 | 30 | 1007.0 |
| 20260504203003 | 71 | 360 | 1.7 | 9.6 | 0.00 | 0.00 | 0.00 | 29 | 1007.0 |
| 20260504201502 | 72 | 279 | 2.6 | 7.8 | 0.00 | 0.00 | 0.00 | 29 | 1006.9 |
| 20260504194559 | 71 | 321 | 2.6 | 6.1 | 0.00 | 0.00 | 0.00 | 29 | 1007.0 |
| 20260504193101 | 72 | 283 | 3.5 | 10.4 | 0.00 | 0.00 | 0.00 | 29 | 1007.1 |
| 20260504191557 | 72 | 219 | 3.5 | 7.8 | 0.00 | 0.00 | 0.00 | 29 | 1007.0 |
| 20260504190156 | 72 | 116 | 1.7 | 7.8 | 0.00 | 0.00 | 0.00 | 28 | 1007.3 |
| 20260504184600 | 72 | 317 | 2.6 | 13.0 | 0.00 | 0.00 | 0.00 | 27 | 1007.2 |
| 20260504183056 | 71 | 338 | 3.5 | 10.4 | 0.00 | 0.00 | 0.00 | 28 | 1007.5 |
| 20260504181554 | 71 | 323 | 1.7 | 7.8 | 0.00 | 0.00 | 0.00 | 30 | 1007.5 |
| 20260504180152 | 72 | 284 | 1.7 | 7.0 | 0.00 | 0.00 | 0.00 | 28 | 1007.5 |
| 20260504174549 | 70 | 292 | 3.5 | 10.4 | 0.00 | 0.00 | 0.00 | 30 | 1007.6 |
| 20260504173046 | 70 | 350 | 3.5 | 10.4 | 0.00 | 0.00 | 0.00 | 28 | 1007.8 |
| 20260504171546 | 70 | 310 | 3.5 | 8.7 | 0.00 | 0.00 | 0.00 | 28 | 1008.1 |
| 20260504160136 | 67 | 194 | 3.5 | 8.7 | 0.00 | 0.00 | 0.00 | 34 | 1008.6 |
| 20260504150125 | 65 | 329 | 1.7 | 7.8 | 0.00 | 0.00 | 0.00 | 37 | 1009.4 |
| 20260504140114 | 62 | 348 | 1.7 | 7.0 | 0.00 | 0.00 | 0.00 | 39 | 1010.1 |
| 20260504120147 | 50 | 305 | 1.7 | 6.1 | 0.00 | 0.01 | 0.00 | 58 | 1010.9 |
| 20260504081537 | 43 | 346 | 0.0 | 0.9 | 0.00 | 0.01 | 0.00 | 71 | 1011.1 |
| 20260504044558 | 34 | 332 | 0.0 | 0.9 | 0.00 | 0.01 | 0.01 | 79 | 1011.1 |
| 20260504043100 | 35 | 331 | 0.0 | 1.7 | 0.00 | 0.01 | 0.01 | 79 | 1011.1 |
| 20260504041555 | 35 | 331 | 0.0 | 0.0 | 0.00 | 0.01 | 0.01 | 78 | 1011.1 |
| 20260504040054 | 35 | 331 | 0.0 | 0.0 | 0.00 | 0.01 | 0.01 | 77 | 1011.0 |
| 20260504034554 | 35 | 332 | 0.0 | 0.9 | 0.00 | 0.01 | 0.01 | 77 | 1011.0 |
| 20260504033053 | 36 | 331 | 0.0 | 0.0 | 0.00 | 0.01 | 0.01 | 75 | 1010.8 |
| 20260504031552 | 36 | 331 | 0.0 | 0.9 | 0.00 | 0.01 | 0.01 | 73 | 1010.8 |
| 20260504030048 | 37 | 331 | 0.0 | 1.7 | 0.00 | 0.01 | 0.01 | 72 | 1010.9 |
| 20260504024549 | 37 | 331 | 0.0 | 0.0 | 0.00 | 0.01 | 0.01 | 71 | 1010.8 |
| 20260504023043 | 38 | 331 | 0.0 | 0.0 | 0.00 | 0.01 | 0.01 | 70 | 1010.8 |
| 20260504021540 | 39 | 331 | 0.0 | 0.0 | 0.00 | 0.01 | 0.01 | 68 | 1010.8 |
| 20260504020057 | 40 | 331 | 0.0 | 0.9 | 0.00 | 0.01 | 0.01 | 66 | 1010.5 |
| 20260504014553 | 40 | 332 | 0.0 | 0.9 | 0.00 | 0.01 | 0.01 | 65 | 1010.4 |